Location: Audinghen
(50.8518°N, 1.6129°E)
Time: 10:38:41
(UTC+00:00)

Meteor 2-13 Rocket - Pass Details

Date: 07 August 2020
Orbit: 937 x 957 km, 82.5° (Epoch: 20 September)

Event Time Altitude Azimuth Distance (km) Brightness Sun altitude
Rises 01:22:42 0° 348° (NNW) 3,618 8.4 -20.4°
Reaches altitude 10° 01:25:12 10° 347° (NNW) 2,672 7.6 -20.2°
Maximum altitude 01:31:17 75° 263° (W) 983 4.4 -19.9°
Enters shadow 01:34:12 33° 185° (S) 1,543 5.0 -19.7°
